STARLINK-2255, 48597

Orbit data source: Space-Track

STARLINK-2255, 48597 is a payload satellite owned by SpaceX/Seattle (US) in LEO that was launched on Sat, 15 May 2021 UTC via an FALCON 9 launch vehicle from the Air Force Eastern Test Range (AFETR). Payload-class satellites include a variety of spacecraft equipped with specific instruments for various scientific and technological missions. These include communications satellites like Starlink; space stations such as the ISS; scientific satellites like the Hubble; Earth observation satellites from companies like Planet Labs, Umbra, and HawkEye 360; GPS; miniature CubeSats for education and research; and military/defense satellites.

Loading next visibility...
Identifier
48597, 2021-041AW
Orbit
LEO
Country
Flag of USUS
Related business
Manufacturer
SpaceX/Seattle
Mission
Operational Commercial Communications
Bus & Motor
STARLINK, Unknown motor
Mass
260 kg wet, ~248 kg dry
Launch date (UTC)
2021-05-15 (5 years ago)
Launch vehicle
FALCON 9
Launch site
Air Force Eastern Test Range (AFETR)
Object type
Payload
Rocket body
Debris
Shape & HBR
Box + 1 Pan, 10.1 m
Radar Cross Section
13.562 m², Large (>1 m²)

Expand to show TLE details & history
Last TLE update: 20 hours ago

TLE from 20 hours ago
0 STARLINK-2255
1 48597U 21041AW  25348.87167734 -.00000632  00000-0 -23540-4 0  9997
2 48597  53.0548 162.3801 0001507  91.5045 268.6117 15.06384019253545
Epoch: 2025-12-14T20:55Z
TLE epoch observation values (Epoch: 2025-12-14T20:55:12.922Z)
Latitude
0.00003°
Longitude
124.79791°
Altitude
548.165 km
Speed
7.589 km/s
True Right ascension
10h 49m 31s
True Declination
0° 00' 00"
Sunlit
Object was in daylight at epoch
Visualization orbit readout
Latitude
Unknown
Longitude
Unknown
Altitude
Unknown
Speed
Unknown
Apparent Right ascension
Unknown
Apparent Declination
Unknown
Sunlit
N/A
Visualization observer readout
Local Sidereal Time
15:08:16
Azimuth
Unknown
Elevation
Unknown
Doppler factor
Unknown
Orbital elements
Apogee altitude
548.575 km
Perigee altitude
546.488 km
Semi-major axis
6,925.668 km
Eccentricity
0.00015
Inclination
53.0548°
RAAN
162.3801°
Arg. of periapsis
91.5045°
True anomaly
268.59444°
Mean anomaly
268.6117°
Eccentric anomaly
268.60307°
Mean motion
3.76574 °/min
Orbital period
95.6 mins
BSTAR
-0.00002354
Loading maneuver chart data...
Computing Atmospheric mass density...
Loading historical data...
Loading historical data...
Loading historical data...
Loading historical data...
Loading historical data...
Loading historical data...
Loading historical data...

Documentation

Showing up to 5 results
|